Weather observations for the past three days for
Point Lay, Point Lay LRRS Airport
Metric (Imperial)
Date Time (akdt) Wind (kph) Vis. (km) Weather Sky Cond. Temperature (ºC) Relative Humidity Wind Chill (°C) Heat Index (°C) Pressure Precipitation (cm)
Air Dwpt 6 hour altimeter (cm) sea level (mb) 1 hr 3 hr 6 hr
Max. Min.
16 04:56 SW 28 16.09 Overcast BKN100 OVC120 6.7 2.2 73% 3 76.48 1020.1
16 03:56 SW 24 16.09 Partly Cloudy SCT120 5.6 2.2 6.7 5 79% 2 76.5 1020.4
16 02:56 S 22 16.09 Fair CLR 5 2.2 82% 1 76.56 1020.9
16 01:56 SW 26 16.09 Overcast OVC100 5 2.2 82% 1 76.56 1021.1
16 00:56 SW 15 16.09 Overcast OVC100 5.6 2.8 82% 3 76.58 1021.2
15 23:56 SW 19 16.09 Overcast OVC090 5.6 2.2 79% 2 76.56 1021.1
15 22:56 SW 15 16.09 Overcast OVC075 5.6 2.2 79% 3 76.56 1020.9
15 21:56 SW 17 16.09 Partly Cloudy SCT110 6.1 2.2 8.3 6.1 76% 3 76.56 1021.0
15 20:56 SW 20 16.09 Mostly Cloudy BKN110 7.2 2.8 74% 4 76.58 1021.2
15 19:56 SW 30 16.09 Fair CLR 7.2 2.8 74% 3 76.58 1021.4
15 18:56 SW 28 16.09 Fair CLR 7.2 2.8 74% 3 76.61 1021.5
15 17:56 SW 24 16.09 Fair CLR 7.2 3.3 77% 4 76.61 1021.8
15 16:56 SW 39 G 48 16.09 Fair and Breezy CLR 8.3 3.9 74% 4 76.61 1021.6
15 15:56 SW 31 16.09 Fair CLR 6.7 2.8 7.2 4.4 76% 3 76.63 1021.9
15 14:56 SW 30 16.09 Fair CLR 6.7 2.8 76% 3 76.63 1021.9
15 13:56 SW 28 16.09 Fair CLR 6.1 2.8 80% 2 76.63 1022.1
15 12:56 S 17 16.09 Fair CLR 6.1 2.8 80% 3 76.68 1022.5
15 11:56 S 22 16.09 Fair CLR 5.6 2.8 82% 2 76.68 1022.5
15 10:56 S 26 16.09 Fair CLR 4.4 2.2 86% 0 76.66 1022.4
15 09:56 SW 30 16.09 Overcast OVC070 4.4 2.2 4.4 3.3 86% -0 76.68 1022.5
15 08:56 S 24 16.09 Overcast SCT027 OVC070 4.4 2.2 86% 0 76.68 1022.6
15 07:56 S 26 16.09 Overcast OVC065 3.9 1.7 86% -1 76.68 1022.6
15 06:56 S 17 16.09 Overcast OVC075 3.9 1.7 86% 0 76.68 1022.7
15 05:56 SW 13 16.09 Mostly Cloudy FEW035 BKN080 4.4 2.2 86% 2 76.71 1022.9
15 04:56 SE 15 16.09 Overcast SCT035 OVC090 3.9 2.2 89% 1 76.71 1022.9
15 03:56 E 17 16.09 Overcast OVC035 3.9 2.2 5.6 3.3 89% 0 76.71 1023.0
15 02:56 E 13 16.09 Partly Cloudy SCT035 4.4 2.2 86% 2 76.73 1023.4
15 01:56 SE 7 16.09 Partly Cloudy SCT043 3.9 1.1 82% 2 76.76 1023.7
15 00:56 SE 9 16.09 Overcast OVC045 4.4 1.7 83% 2 76.78 1024.1
14 23:56 S 11 16.09 Partly Cloudy SCT029 4.4 1.1 79% 2 76.78 1023.9
14 22:56 SW 13 16.09 Fair CLR 5 1.1 76% 2 76.78 1024.2
14 21:56 SW 11 16.09 Overcast OVC032 5 1.1 5.6 4.4 76% 3 76.78 1024.0
14 20:56 NW 7 16.09 Overcast OVC034 5 1.1 76% 4 76.78 1024.0
14 19:56 NW 9 16.09 Overcast OVC032 5 1.1 76% 3 76.78 1023.9
14 18:56 W 11 16.09 A Few Clouds FEW030 5.6 1.7 76% 3 76.78 1024.0
14 17:56 W 9 16.09 Partly Cloudy SCT030 5.6 2.2 79% 4 76.78 1023.9
14 16:56 W 19 16.09 Partly Cloudy SCT038 5 2.8 86% 2 76.78 1023.9
14 15:56 W 19 16.09 A Few Clouds FEW048 5.6 2.8 8.9 4.4 82% 2 76.78 1023.9
14 14:56 W 17 16.09 Mostly Cloudy BKN055 5.6 2.8 82% 3 76.76 1023.6
14 13:56 SW 24 16.09 Overcast OVC060 6.1 3.3 82% 2 76.73 1023.3
14 12:56 SW 19 16.09 Partly Cloudy SCT060 6.7 3.9 83% 4 76.71 1022.9
14 11:56 S 17 16.09 Overcast OVC060 8.3 4.4 77% 6 76.68 1022.5
14 10:56 Calm 16.09 A Few Clouds FEW060 7.8 4.4 79% 76.66 1022.3
14 09:56 E 9 16.09 Fair CLR 6.7 3.9 6.7 2.2 83% 5 76.66 1022.3
14 08:56 Calm 16.09 Overcast OVC016 5 2.8 86% 76.66 1022.3
14 07:56 NE 7 16.09 Overcast OVC020 3.9 2.8 93% 2 76.63 1022.1
14 06:56 Calm 16.09 Overcast FEW002 OVC020 3.3 2.8 97% 76.66 1022.2
14 05:56 Calm 16.09 Overcast OVC018 2.8 2.2 96% 76.66 1022.5
14 04:56 S 6 16.09 Overcast BKN018 OVC029 2.2 1.7 97% 76.66 1022.4
14 03:56 Calm 16.09 Overcast BKN029 OVC035 2.2 1.7 2.2 1.7 97% 76.66 1022.3 0.03
14 02:56 SW 11 11.27 Overcast FEW002 OVC017 2.2 1.7 97% -1 76.71 1022.9
14 01:56 Calm 16.09 Overcast OVC030 2.2 1.1 93% 76.68 1022.7
14 00:56 SW 9 16.09 Light Rain BKN030 OVC060 1.7 1.1 96% -1 76.68 1022.6 0.03 0.03
13 23:56 SW 13 16.09 Overcast OVC030 2.2 1.1 93% -1 76.71 1022.9
13 22:56 SW 15 16.09 Overcast FEW046 OVC065 2.2 1.1 93% -1 76.68 1022.6
13 21:56 SW 13 16.09 Overcast FEW033 BKN055 OVC070 2.2 0.6 2.8 1.7 89% -1 76.71 1022.8
13 20:56 W 15 16.09 Overcast OVC050 2.2 0.6 89% -1 76.68 1022.7
13 19:56 SW 17 16.09 Mostly Cloudy FEW100 BKN120 2.8 0.6 86% -1 76.68 1022.8
13 18:56 SW 19 16.09 A Few Clouds FEW120 2.2 0.6 89% -2 76.66 1022.2
13 17:56 W 13 16.09 A Few Clouds FEW110 2.2 0.6 89% -1 76.68 1022.5
13 16:56 SW 17 16.09 Fair CLR 2.2 0.6 89% -2 76.68 1022.6
13 15:56 SW 17 16.09 Fair CLR 2.2 0.6 2.2 1.1 89% -2 76.68 1022.5
13 14:56 W 20 16.09 Fair CLR 1.7 0.6 93% -3 76.66 1022.4
13 13:56 SW 19 16.09 A Few Clouds FEW004 1.1 0 92% -3 76.66 1022.2
13 12:56 SW 19 16.09 Mostly Cloudy FEW085 BKN120 1.1 0 92% -3 76.63 1022.0
13 11:56 SW 20 16.09 Partly Cloudy FEW090 SCT110 1.1 0 92% -3 76.58 1021.4
13 10:56 SW 17 16.09 Overcast BKN085 OVC120 1.1 0 92% -3 76.56 1021.1
13 09:56 SW 26 16.09 Overcast OVC085 1.1 0 1.7 0.6 92% -4 76.56 1020.8
13 08:56 SW 26 16.09 Overcast OVC090 1.1 0 92% -4 76.53 1020.6
13 07:56 SW 22 16.09 Overcast BKN005 OVC100 0.6 0 96% -4 76.48 1019.9
13 06:56 SW 24 16.09 Overcast OVC005 1.1 0 92% -4 76.43 1019.2
13 05:56 SW 17 16.09 Partly Cloudy SCT003 0.6 0 96% -4 76.38 1018.7
Date Time (akdt) Wind (kph) Vis. (km) Weather Sky Cond. Air Dwpt Max. Min. Relative Humidity Wind Chill (°C) Heat Index (°C) altimeter (cm) sea level (mb) 1 hr 3 hr 6 hr
6 hour
Temperature (ºC) Pressure Precipitation (cm)